Aeroporto :
LOGIN :

Iscrizione | Disclaimer

   EN    FR    IT 

 










Sommario :    VFR   VFR Marginale   IFR   IFR Intensivo   IFR Molto Intensivo
Visibilità : 
Base nubi : 
>= 8 km
>= 3000ft
5 / 8 km
1000 / 3000 ft
1500m / 5 km
500 / 1000 ft
800 / 1500m
200 / 500 ft
< 800m
< 200 ft
Simboli :   Temporali  Nebbia  Neve Forte  Precipitazioni Forti  Vento > 20 kt
SIGMETs :   Varie  Temporali  Ghiacco  Turbolenza  Onda orograficha  Ceneri Vulcaniche






- Altitudine del aeroporto : 1339 ft


ETHN - Niederstetten

ULTIMO METAR :
  • 282320Z 14004KT 9999 BKN180 00/M00 Q1020 BLU

METARs OBSOLETI :
  • 282300Z 13004KT 9999 BKN180 00/M00 Q1020 BLU FCST CNL
  • 282220Z 17003KT 9999 BKN190 01/00 Q1020 BLU BLU+
  • 282120Z 15006KT 9999 BKN210 02/01 Q1021 BLU+BLU+
  • 282020Z 15005KT 9999 BKN220 SCT280 02/01 Q1021 BLU+BLU+
  • 281920Z 15005KT 9999 SCT250 SCT300 03/01 Q1021 BLU+BLU+
  • 281820Z 17004KT 9999 SCT270 BKN350 03/01 Q1021 BLU+BLU+

TAF TAF ETHN
Valido dal 28 a 21 ore il 29 a 06 ore UTC


282000Z 2821/2906 14005KT 9999 NSW FEW025 SCT250 BKN300



MetMap, La meteo Aeronautica in un colpo d'occhio ! - Copyright ORBIFLY Dicembre 2007 - Disclaimer

ORBIFLY MET'MAP TEAM :

Programmazione e sviluppo : Alexandra Zaïnal
Concezione : Baudouin d'Aumeries
Supporto tecnico e logistico : Manuel Goepfert
Aiuto : Marc-Olivier Méhu
Aiuto per la traduzione : Arnaldo La Scala




FONTI E CREDITI :

   NOAA